This is the latest recevied weather packets stored in our database for station/object N5PRN. If no packets are shown the sender has not sent any weather packets the latest 1 day(s).
| Time | Temp. | Humidity | Pressure | Rain* | Wind** | Luminosity | Snow |
|---|---|---|---|---|---|---|---|
| 1778033503 | 23.89° C | 93% | 1008.9 hPa | 0 mm | 0 m/s | 0 W/m² | - |
| 1778033200 | 23.89° C | 93% | 1008.7 hPa | 0 mm | 1.34 m/s, 245° | 0 W/m² | - |
| 1778032897 | 23.89° C | 93% | 1008.7 hPa | 0 mm | 0.89 m/s, 209° | 0 W/m² | - |
| 1778032595 | 23.89° C | 93% | 1008.6 hPa | 0 mm | 1.34 m/s, 243° | 0 W/m² | - |
| 1778032292 | 23.89° C | 93% | 1008.3 hPa | 0 mm | 0.45 m/s, 252° | 0 W/m² | - |
| 1778031989 | 23.89° C | 93% | 1008.2 hPa | 0 mm | 0.45 m/s, 220° | 0 W/m² | - |
| 1778031684 | 23.89° C | 92% | 1008.5 hPa | 0 mm | 0.45 m/s, 209° | 0 W/m² | - |
| 1778031383 | 23.89° C | 93% | 1008.7 hPa | 0 mm | 1.34 m/s, 206° | 0 W/m² | - |
| 1778031079 | 23.89° C | 93% | 1008.6 hPa | 0 mm | 1.34 m/s, 237° | 0 W/m² | - |
| 1778030775 | 23.89° C | 93% | 1008.2 hPa | 0 mm | 0.89 m/s, 183° | 0 W/m² | - |
| 1778030471 | 23.89° C | 92% | 1008.3 hPa | 0 mm | 0 m/s | 0 W/m² | - |
| 1778030164 | 23.89° C | 92% | 1008.2 hPa | 0 mm | 1.79 m/s, 234° | 0 W/m² | - |
| 1778029860 | 24.44° C | 92% | 1008.1 hPa | 0 mm | 0.89 m/s, 206° | 0 W/m² | - |
| 1778029560 | 24.44° C | 92% | 1008.2 hPa | 0 mm | 0 m/s | 0 W/m² | - |
| 1778029255 | 24.44° C | 91% | 1008.1 hPa | 0 mm | 0.89 m/s, 212° | 0 W/m² | - |
| 1778028953 | 24.44° C | 91% | 1008.2 hPa | 0 mm | 0.89 m/s, 212° | 0 W/m² | - |
| 1778028649 | 24.44° C | 90% | 1008.2 hPa | 0 mm | 0.45 m/s, 227° | 0 W/m² | - |
| 1778028347 | 24.44° C | 90% | 1008.2 hPa | 0 mm | 1.34 m/s, 256° | 3 W/m² | - |
| 1778028047 | 25° C | 90% | 1008.4 hPa | 0 mm | 0 m/s | 5 W/m² | - |
| 1778027740 | 25° C | 90% | 1008.6 hPa | 0 mm | 1.34 m/s, 183° | 10 W/m² | - |
| 1778027436 | 25° C | 89% | 1008.4 hPa | 0 mm | 0.89 m/s, 188° | 17 W/m² | - |
| 1778027132 | 25° C | 89% | 1008.2 hPa | 0 mm | 0.45 m/s, 202° | 19 W/m² | - |
| 1778026828 | 25° C | 89% | 1008.3 hPa | 0 mm | 0.45 m/s, 195° | 21 W/m² | - |
| 1778026524 | 25° C | 89% | 1008.3 hPa | 0 mm | 0.89 m/s, 199° | 26 W/m² | - |
| 1778026222 | 25° C | 89% | 1008.2 hPa | 0 mm | 0.89 m/s, 198° | 30 W/m² | - |
* Rain latest hour (hover to see other rain measurements)
** Current wind speed in m/s (hover to see current wind gust speed)